Location: Unspecified
(0.0000°N, 0.0000°E)
Time: 18:30:11
(UTC+00:00)

NOSS 3-2 (A) - Visible Passes

Search period start: 22 October 2019 00:00
Search period end: 01 November 2019 00:00
Orbit: 817 x 1391 km, 63.4° (Epoch: 19 October)

Date Brightness Start Highest point End Pass type
(mag) Time Alt. Az. Time Alt. Az. Time Alt. Az.
22 Oct 6.4 03:08:41 10° NNE 03:13:33 16° ENE 03:18:26 10° ESE visible
22 Oct 4.2 04:55:57 10° NNW 05:04:26 72° WSW 05:12:54 10° SSE visible
23 Oct 4.5 04:10:35 10° NNW 04:19:02 70° ENE 04:27:30 10° SSE visible
24 Oct 5.3 03:26:51 14° N 03:33:38 41° ENE 03:41:28 10° SE visible
24 Oct 5.0 05:17:10 10° NW 05:24:27 31° WSW 05:31:41 10° S visible
25 Oct 6.0 02:44:29 17° NE 02:48:13 23° ENE 02:54:33 10° ESE visible
25 Oct 4.4 04:32:00 15° NW 04:39:02 54° WSW 04:47:15 10° S visible
26 Oct 6.5 02:02:01 11° ENE 02:02:42 11° ENE 02:05:15 10° E visible
26 Oct 4.1 03:49:30 36° NNW 03:53:38 90° S 04:02:11 10° SSE visible
27 Oct 4.7 03:06:52 50° NE 03:08:15 54° ENE 03:16:30 10° SE visible
27 Oct 5.3 04:54:22 15° WNW 04:59:05 23° WSW 05:05:22 10° SSW visible
28 Oct 5.6 02:24:07 30° E 02:24:07 30° E 02:30:06 10° SE visible
28 Oct 4.6 04:11:35 36° W 04:13:38 41° WSW 04:21:26 10° S visible
29 Oct 6.5 01:41:13 13° E 01:41:13 13° E 01:42:29 10° ESE visible
29 Oct 4.1 03:28:41 68° SW 03:28:41 68° SW 03:36:41 10° SSE visible
30 Oct 4.9 02:45:39 47° SE 02:45:39 47° SE 02:51:20 10° SSE visible
30 Oct 5.5 04:33:06 16° WSW 04:33:44 16° WSW 04:38:35 10° SSW visible
31 Oct 6.0 02:02:30 22° ESE 02:02:30 22° ESE 02:05:21 10° SE visible
31 Oct 5.2 03:49:57 28° SW 03:49:57 28° SW 03:55:23 10° S visible
